Time,TemperatureF,DewpointF,PressureIn,WindDirection,WindDirectionDegrees,WindSpeedMPH,WindSpeedGustMPH,Humidity,HourlyPrecipIn,Conditions,Clouds,dailyrainin,SoftwareType,DateUTC
2013-08-22 00:01:00,61.9,51.6,30.24,South,180,7.3,-999.0,69,-99.99,,,0.00,Acu-Link.com,2013-08-22 06:01:00,
2013-08-22 00:17:00,61.7,51.4,30.24,South,180,2.7,-999.0,69,-99.99,,,0.00,Acu-Link.com,2013-08-22 06:17:00,
2013-08-22 00:32:00,60.8,51.0,30.24,South,180,1.1,-999.0,70,-99.99,,,0.00,Acu-Link.com,2013-08-22 06:32:00,
2013-08-22 00:47:00,60.6,50.0,30.24,South,180,2.2,-999.0,68,-99.99,,,0.00,Acu-Link.com,2013-08-22 06:47:00,
2013-08-22 01:03:00,59.5,48.9,30.23,SE,135,0.0,-999.0,68,-99.99,,,0.00,Acu-Link.com,2013-08-22 07:03:00,
2013-08-22 01:18:00,58.6,49.2,30.24,SE,135,2.7,-999.0,71,-99.99,,,0.00,Acu-Link.com,2013-08-22 07:18:00,
2013-08-22 01:33:00,57.4,48.4,30.23,SE,135,1.7,-999.0,72,-99.99,,,0.00,Acu-Link.com,2013-08-22 07:33:00,
2013-08-22 01:49:00,56.3,48.5,30.23,SSW,202,2.2,-999.0,75,-99.99,,,0.00,Acu-Link.com,2013-08-22 07:49:00,
2013-08-22 02:04:00,55.9,48.1,30.22,ESE,112,2.2,-999.0,75,-99.99,,,0.00,Acu-Link.com,2013-08-22 08:04:00,
2013-08-22 02:19:00,55.9,48.1,30.22,ESE,112,3.2,-999.0,75,-99.99,,,0.00,Acu-Link.com,2013-08-22 08:19:00,
2013-08-22 02:34:00,55.4,48.3,30.23,NW,315,2.2,-999.0,77,-99.99,,,0.00,Acu-Link.com,2013-08-22 08:34:00,
2013-08-22 02:50:00,54.7,48.3,30.23,NW,315,0.0,-999.0,79,-99.99,,,0.00,Acu-Link.com,2013-08-22 08:50:00,
2013-08-22 03:05:00,53.8,47.8,30.23,NW,315,2.7,-999.0,80,-99.99,,,0.00,Acu-Link.com,2013-08-22 09:05:00,
2013-08-22 03:20:00,53.6,47.2,30.22,SE,135,2.7,-999.0,79,-99.99,,,0.00,Acu-Link.com,2013-08-22 09:20:00,
2013-08-22 03:35:00,53.6,47.2,30.22,SE,135,0.0,-999.0,79,-99.99,,,0.00,Acu-Link.com,2013-08-22 09:35:00,
2013-08-22 03:50:00,53.1,46.4,30.23,SE,135,0.0,-999.0,78,-99.99,,,0.00,Acu-Link.com,2013-08-22 09:50:00,
2013-08-22 04:05:00,52.5,46.5,30.22,SE,135,0.0,-999.0,80,-99.99,,,0.00,Acu-Link.com,2013-08-22 10:05:00,
2013-08-22 04:21:00,54.0,47.0,30.22,SSW,202,1.7,-999.0,77,-99.99,,,0.00,Acu-Link.com,2013-08-22 10:21:00,
2013-08-22 04:36:00,53.6,46.9,30.22,SSE,157,0.0,-999.0,78,-99.99,,,0.00,Acu-Link.com,2013-08-22 10:36:00,
2013-08-22 06:38:00,49.8,45.8,30.24,SSE,157,0.0,-999.0,86,-99.99,,,0.00,Acu-Link.com,2013-08-22 12:38:00,
2013-08-22 06:53:00,49.8,46.1,30.25,SSE,157,0.0,-999.0,87,-99.99,,,0.00,Acu-Link.com,2013-08-22 12:53:00,
2013-08-22 07:09:00,50.7,47.0,30.25,SSE,157,3.7,-999.0,87,-99.99,,,0.00,Acu-Link.com,2013-08-22 13:09:00,
2013-08-22 07:24:00,53.1,48.4,30.26,SSE,157,3.2,-999.0,84,-99.99,,,0.00,Acu-Link.com,2013-08-22 13:24:00,
2013-08-22 07:39:00,56.5,50.1,30.26,East,90,2.2,-999.0,79,-99.99,,,0.00,Acu-Link.com,2013-08-22 13:39:00,
2013-08-22 07:54:00,62.2,54.2,30.26,West,270,0.0,-999.0,75,-99.99,,,0.00,Acu-Link.com,2013-08-22 13:54:00,
2013-08-22 08:09:00,68.0,55.4,30.26,NE,45,0.0,-999.0,64,-99.99,,,0.00,Acu-Link.com,2013-08-22 14:09:00,
2013-08-22 08:25:00,71.6,55.5,30.26,West,270,0.0,-999.0,57,-99.99,,,0.00,Acu-Link.com,2013-08-22 14:25:00,
2013-08-22 08:40:00,75.6,57.2,30.26,NNW,337,2.2,-999.0,53,-99.99,,,0.00,Acu-Link.com,2013-08-22 14:40:00,
2013-08-22 08:55:00,74.1,55.9,30.27,WNW,292,2.2,-999.0,53,-99.99,,,0.00,Acu-Link.com,2013-08-22 14:55:00,
2013-08-22 09:10:00,69.3,53.9,30.26,WNW,292,1.7,-999.0,58,-99.99,,,0.00,Acu-Link.com,2013-08-22 15:10:00,
2013-08-22 09:26:00,71.2,54.7,30.25,WSW,247,1.7,-999.0,56,-99.99,,,0.00,Acu-Link.com,2013-08-22 15:26:00,
2013-08-22 09:41:00,72.5,55.9,30.25,West,270,4.2,-999.0,56,-99.99,,,0.00,Acu-Link.com,2013-08-22 15:41:00,
2013-08-22 09:56:00,75.0,56.7,30.24,ESE,112,0.0,-999.0,53,-99.99,,,0.00,Acu-Link.com,2013-08-22 15:56:00,
2013-08-22 10:12:00,75.7,55.7,30.25,North,0,3.2,-999.0,50,-99.99,,,0.00,Acu-Link.com,2013-08-22 16:12:00,
2013-08-22 10:27:00,76.1,54.4,30.24,ESE,112,1.7,-999.0,47,-99.99,,,0.00,Acu-Link.com,2013-08-22 16:27:00,
2013-08-22 10:42:00,78.4,56.5,30.24,South,180,3.7,-999.0,47,-99.99,,,0.00,Acu-Link.com,2013-08-22 16:42:00,
2013-08-22 10:57:00,79.9,56.0,30.23,NW,315,4.2,-999.0,44,-99.99,,,0.00,Acu-Link.com,2013-08-22 16:57:00,
2013-08-22 11:13:00,80.8,55.5,30.22,WNW,292,1.7,-999.0,42,-99.99,,,0.00,Acu-Link.com,2013-08-22 17:13:00,
2013-08-22 11:28:00,81.5,55.5,30.21,WNW,292,2.7,-999.0,41,-99.99,,,0.00,Acu-Link.com,2013-08-22 17:28:00,
2013-08-22 11:43:00,82.0,53.9,30.20,SSE,157,2.2,-999.0,38,-99.99,,,0.00,Acu-Link.com,2013-08-22 17:43:00,
2013-08-22 11:58:00,81.9,53.0,30.21,South,180,2.2,-999.0,37,-99.99,,,0.00,Acu-Link.com,2013-08-22 17:58:00,
2013-08-22 12:13:00,84.0,54.1,30.19,WNW,292,2.7,-999.0,36,-99.99,,,0.00,Acu-Link.com,2013-08-22 18:13:00,
2013-08-22 12:29:00,85.6,53.2,30.17,NW,315,3.7,-999.0,33,-99.99,,,0.00,Acu-Link.com,2013-08-22 18:29:00,
2013-08-22 12:44:00,86.0,52.7,30.17,WSW,247,5.8,-999.0,32,-99.99,,,0.00,Acu-Link.com,2013-08-22 18:44:00,
2013-08-22 13:00:00,84.6,49.7,30.16,NE,45,3.7,-999.0,30,-99.99,,,0.00,Acu-Link.com,2013-08-22 19:00:00,
2013-08-22 13:15:00,81.9,52.3,30.16,South,180,4.2,-999.0,36,-99.99,,,0.00,Acu-Link.com,2013-08-22 19:15:00,
2013-08-22 13:30:00,85.8,51.6,30.14,SW,225,2.2,-999.0,31,-99.99,,,0.00,Acu-Link.com,2013-08-22 19:30:00,
2013-08-22 13:45:00,88.0,50.8,30.15,WNW,292,4.2,-999.0,28,-99.99,,,0.00,Acu-Link.com,2013-08-22 19:45:00,
2013-08-22 14:00:00,85.1,51.0,30.13,ENE,67,3.2,-999.0,31,-99.99,,,0.00,Acu-Link.com,2013-08-22 20:00:00,
2013-08-22 14:16:00,89.2,51.8,30.14,WNW,292,3.7,-999.0,28,-99.99,,,0.00,Acu-Link.com,2013-08-22 20:16:00,
2013-08-22 14:31:00,88.7,50.4,30.11,NNE,22,5.3,-999.0,27,-99.99,,,0.00,Acu-Link.com,2013-08-22 20:31:00,
2013-08-22 14:46:00,87.4,52.1,30.11,NW,315,9.9,-999.0,30,-99.99,,,0.00,Acu-Link.com,2013-08-22 20:46:00,
2013-08-22 15:01:00,87.1,52.8,30.09,North,0,10.9,-999.0,31,-99.99,,,0.00,Acu-Link.com,2013-08-22 21:01:00,
2013-08-22 15:16:00,83.3,52.8,30.11,NNW,337,11.9,-999.0,35,-99.99,,,0.00,Acu-Link.com,2013-08-22 21:16:00,
2013-08-22 15:31:00,80.2,53.0,30.10,NNW,337,7.3,-999.0,39,-99.99,,,0.00,Acu-Link.com,2013-08-22 21:31:00,
2013-08-22 15:46:00,79.9,54.1,30.09,NW,315,6.8,-999.0,41,-99.99,,,0.00,Acu-Link.com,2013-08-22 21:46:00,
2013-08-22 16:01:00,79.7,53.2,30.10,West,270,6.8,-999.0,40,-99.99,,,0.00,Acu-Link.com,2013-08-22 22:01:00,
2013-08-22 16:16:00,76.5,52.3,30.10,SW,225,4.2,-999.0,43,-99.99,,,0.00,Acu-Link.com,2013-08-22 22:16:00,
2013-08-22 16:31:00,78.1,53.1,30.10,NNE,22,4.2,-999.0,42,-99.99,,,0.00,Acu-Link.com,2013-08-22 22:31:00,
2013-08-22 16:47:00,71.4,58.1,30.11,NNE,22,3.7,-999.0,63,-99.99,,,0.04,Acu-Link.com,2013-08-22 22:47:00,
2013-08-22 17:02:00,66.6,57.7,30.11,ESE,112,3.2,-999.0,73,-99.99,,,0.11,Acu-Link.com,2013-08-22 23:02:00,
2013-08-22 17:17:00,64.8,55.9,30.10,NNE,22,1.7,-999.0,73,-99.99,,,0.25,Acu-Link.com,2013-08-22 23:17:00,
2013-08-22 17:32:00,65.3,57.2,30.11,East,90,3.7,-999.0,75,-99.99,,,0.25,Acu-Link.com,2013-08-22 23:32:00,
2013-08-22 17:47:00,65.5,55.8,30.13,ESE,112,18.1,-999.0,71,-99.99,,,0.25,Acu-Link.com,2013-08-22 23:47:00,
2013-08-22 18:02:00,63.0,54.2,30.15,ESE,112,10.9,-999.0,73,-99.99,,,0.25,Acu-Link.com,2013-08-23 00:02:00,
2013-08-22 18:18:00,61.7,54.4,30.17,SSE,157,5.3,-999.0,77,-99.99,,,0.27,Acu-Link.com,2013-08-23 00:18:00,
2013-08-22 18:33:00,61.7,52.2,30.15,NW,315,4.7,-999.0,71,-99.99,,,0.48,Acu-Link.com,2013-08-23 00:33:00,
2013-08-22 18:48:00,60.6,54.0,30.15,ENE,67,2.7,-999.0,79,-99.99,,,0.51,Acu-Link.com,2013-08-23 00:48:00,
2013-08-22 19:03:00,60.6,54.7,30.14,ENE,67,3.2,-999.0,81,-99.99,,,0.52,Acu-Link.com,2013-08-23 01:03:00,
2013-08-22 19:18:00,61.0,53.7,30.14,ESE,112,9.4,-999.0,77,-99.99,,,0.52,Acu-Link.com,2013-08-23 01:18:00,
2013-08-22 19:34:00,62.1,54.1,30.14,ESE,112,5.8,-999.0,75,-99.99,,,0.52,Acu-Link.com,2013-08-23 01:34:00,
2013-08-22 19:49:00,62.4,53.3,30.14,ESE,112,9.9,-999.0,72,-99.99,,,0.52,Acu-Link.com,2013-08-23 01:49:00,
2013-08-22 20:04:00,61.9,52.8,30.15,ESE,112,5.3,-999.0,72,-99.99,,,0.52,Acu-Link.com,2013-08-23 02:04:00,
2013-08-22 20:19:00,62.1,52.6,30.15,ENE,67,8.3,-999.0,71,-99.99,,,0.52,Acu-Link.com,2013-08-23 02:19:00,
2013-08-22 20:34:00,62.8,51.7,30.15,SE,135,6.8,-999.0,67,-99.99,,,0.52,Acu-Link.com,2013-08-23 02:34:00,
2013-08-22 20:50:00,62.8,51.3,30.16,ENE,67,2.7,-999.0,66,-99.99,,,0.52,Acu-Link.com,2013-08-23 02:50:00,
2013-08-22 21:05:00,61.7,50.6,30.15,WSW,247,2.2,-999.0,67,-99.99,,,0.52,Acu-Link.com,2013-08-23 03:05:00,
2013-08-22 21:20:00,59.9,52.7,30.16,South,180,2.7,-999.0,77,-99.99,,,0.52,Acu-Link.com,2013-08-23 03:20:00,
2013-08-22 21:36:00,61.7,50.6,30.16,North,0,9.4,-999.0,67,-99.99,,,0.52,Acu-Link.com,2013-08-23 03:36:00,
2013-08-22 21:51:00,61.3,50.2,30.18,East,90,2.2,-999.0,67,-99.99,,,0.52,Acu-Link.com,2013-08-23 03:51:00,
2013-08-22 22:06:00,61.0,49.6,30.17,SSW,202,5.3,-999.0,66,-99.99,,,0.52,Acu-Link.com,2013-08-23 04:06:00,
2013-08-22 22:21:00,60.6,50.4,30.17,NNE,22,2.2,-999.0,69,-99.99,,,0.52,Acu-Link.com,2013-08-23 04:21:00,
2013-08-22 22:37:00,60.1,48.7,30.18,SSW,202,4.2,-999.0,66,-99.99,,,0.52,Acu-Link.com,2013-08-23 04:37:00,
2013-08-22 22:52:00,59.2,48.6,30.19,South,180,5.3,-999.0,68,-99.99,,,0.52,Acu-Link.com,2013-08-23 04:52:00,
2013-08-22 23:07:00,58.1,49.5,30.19,ESE,112,0.0,-999.0,73,-99.99,,,0.52,Acu-Link.com,2013-08-23 05:07:00,
2013-08-22 23:22:00,57.9,47.8,30.20,South,180,1.1,-999.0,69,-99.99,,,0.52,Acu-Link.com,2013-08-23 05:22:00,
2013-08-22 23:37:00,57.9,47.4,30.20,SE,135,2.7,-999.0,68,-99.99,,,0.52,Acu-Link.com,2013-08-23 05:37:00,
2013-08-22 23:52:00,57.0,48.8,30.20,NNE,22,2.2,-999.0,74,-99.99,,,0.52,Acu-Link.com,2013-08-23 05:52:00,